#timestamp,LO_Frequency,Hit,StdDev 
1597507215.4,286047001.3,N
1597507235.2,286047002.7,N
1597507255.1,286047000.5,N
1597507256.0,286047000.5,N
1597507275.8,286047000.3,N
1597507295.7,286047002.6,N
1597507315.5,286047000.6,N
1597507335.3,286046996.5,N
1597507355.2,286046999.3,N
1597507375.9,286046999.6,N
1597507395.7,286046999.4,N
1597507415.6,286046998.8,N
1597507435.4,286047001.2,N
1597507455.3,286046996.7,N
1597507475.1,286046996.8,N
1597507476.0,286046996.8,N
1597507495.8,286046997.0,N
1597507515.7,286046997.5,N
1597507535.5,286046995.4,N
1597507555.3,286046995.4,N
1597507575.2,286046997.7,N
1597507595.0,286046998.0,N
1597507595.9,286046998.0,N
1597507615.8,286046995.3,N
1597507635.6,286046996.3,N
1597507655.4,286046996.2,N
1597507675.3,286046996.2,N
1597507695.1,286046995.6,N
1597507715.8,286046995.3,N
1597507735.7,286046993.8,N
1597507755.5,286046996.4,N
1597507775.4,286046993.4,N
1597507795.2,286046996.1,N
1597507815.0,286046995.6,N
1597507815.9,286046995.6,N
1597507835.8,286046995.9,N
1597507855.6,286046994.1,Y
1597507875.4,286046996.7,P
1597507895.3,286046997.0,P
1597507915.1,286046997.7,P
1597507935.9,286046997.4,Y
1597507955.7,286047000.8,P
1597507975.5,286046998.3,N
1597507995.4,286046998.7,N
1597508015.2,286046998.8,N
1597508035.0,286046998.3,N
1597508035.9,286046998.3,N
1597508055.8,286046998.3,N
1597508075.6,286046998.3,N
1597508095.5,286046998.4,N
1597508115.3,286046998.9,N
1597508135.1,286046998.7,N
1597508155.9,286046999.0,N
1597508175.7,286046999.0,N
1597508195.5,286046999.3,N
1597508215.4,286046998.9,N
1597508235.2,286046999.2,N
1597508255.1,286046998.9,N
1597508256.0,286046998.9,N
1597508275.8,286046999.3,N
1597508295.6,286046999.0,N
1597508315.5,286046998.7,N
1597508335.3,286047000.4,N
1597508355.1,286046998.3,N
1597508375.9,286047000.9,N
1597508395.7,286047000.7,N
1597508415.6,286046998.4,N
1597508435.4,286047000.6,N
1597508455.2,286046999.9,N
1597508475.1,286047002.3,N
1597508476.0,286047002.3,N
1597508495.8,286047002.7,N
1597508515.7,286047002.8,N
1597508535.5,286047002.3,N
1597508555.3,286046999.9,N
1597508575.2,286046999.8,N
1597508595.0,286047000.0,N
1597508595.9,286047000.0,N
1597508615.7,286047002.4,N
1597508635.6,286047002.2,N
1597508655.4,286047002.6,N
1597508675.3,286047002.4,N
1597508695.1,286047000.0,N
1597508696.0,286047000.0,N
1597508715.8,286047000.1,N
1597508735.7,286047002.6,N
1597508755.5,286047002.5,N
1597508775.3,286047000.0,N
1597508795.2,286046999.8,N
1597508815.0,286047002.2,N
1597508815.9,286047002.2,N
1597508835.8,286047001.8,N
1597508855.6,286047001.7,N
1597508875.4,286047002.2,N
1597508895.3,286047001.8,N
1597508915.1,286047001.4,N
1597508935.9,286047004.0,Y
1597508955.7,286046999.7,P
1597508975.5,286046999.8,N
1597508995.4,286047002.2,N
1597509015.2,286047002.0,N
1597509035.0,286047001.9,N
1597509035.9,286047001.9,N
1597509055.8,286047002.0,N
1597509075.6,286047002.3,N
1597509095.5,286047002.4,N
1597509115.3,286047002.5,N
1597509135.1,286047002.5,N
1597509155.9,286047002.1,N
1597509175.7,286047002.1,N
1597509195.6,286047002.5,N
1597509215.4,286047001.8,N
1597509235.2,286047001.6,N
1597509255.1,286047002.1,N
1597509256.0,286047002.1,N
1597509275.8,286047001.6,N
1597509295.7,286047002.4,Y
1597509315.5,286047000.2,P
1597509335.4,286047000.6,N
1597509355.2,286047000.5,N
1597509375.0,286047000.6,N
1597509375.9,286047000.6,N
1597509395.8,286047000.0,N
1597509415.6,286047000.3,N
1597509435.5,286047000.9,N
1597509455.3,286047000.2,N
1597509475.1,286046999.9,N
1597509495.9,286046999.9,N
1597509515.7,286047002.8,Y
1597509535.6,286047000.5,P
1597509555.4,286047000.6,P
1597509575.2,286047002.7,P
1597509595.1,286047000.0,N
1597509596.0,286047000.0,N
1597509615.8,286046999.8,N
1597509635.6,286047002.3,N
1597509655.5,286047002.1,N
1597509675.3,286047002.0,N
1597509695.2,286047002.0,N
1597509715.0,286046999.7,N
1597509715.9,286046999.7,N
1597509735.8,286046999.7,N
1597509755.6,286047002.5,N
1597509775.4,286047002.7,N
1597509795.3,286046999.8,N
1597509815.1,286047002.8,N
1597509816.0,286047002.8,N
1597509835.8,286047000.1,N
1597509855.7,286047000.2,N
1597509875.5,286046999.9,N
1597509895.3,286047002.0,N
1597509915.2,286046999.7,N
1597509935.0,286047002.8,N
1597509935.9,286047002.8,N
1597509955.8,286047000.3,N
1597509975.6,286047002.8,N
1597509995.4,286047002.3,N
1597510015.3,286047002.2,N
1597510035.1,286047002.6,N
1597510055.8,286047002.3,N
1597510075.7,286047001.4,N
1597510095.5,286047001.9,N
1597510115.4,286047001.8,N
1597510135.2,286047002.0,N
1597510155.0,286047002.1,N
1597510155.9,286047002.1,N
1597510175.8,286047002.6,N
1597510195.6,286047002.2,N
1597510215.4,286047001.8,N
1597510235.3,286047002.7,N
1597510255.1,286047002.1,N
1597510275.9,286047001.6,N
1597510295.7,286047001.8,N
1597510315.5,286047001.6,N
1597510335.4,286047002.5,N
1597510355.2,286047002.1,N
1597510375.0,286047002.5,N
1597510375.9,286047002.5,N
1597510395.8,286046999.8,N
1597510415.6,286047001.6,N
1597510435.5,286047001.8,N
1597510455.3,286047001.5,N
1597510475.1,286047003.9,Y
1597510495.9,286047002.8,P
1597510515.7,286047002.3,P
1597510535.5,286047000.5,N
1597510555.4,286047000.4,N
1597510575.2,286047000.4,N
1597510595.1,286047000.0,N
1597510596.0,286047000.0,N
1597510615.8,286046999.9,N
1597510635.6,286046999.7,N
1597510655.5,286046999.9,N
1597510675.3,286047000.2,N
1597510695.1,286046999.8,N
1597510715.9,286047000.2,N
1597510735.7,286047000.6,N
1597510755.6,286047002.8,N
1597510775.4,286046999.8,N
1597510795.2,286047000.5,N
